Simultaneous Nadir Overpasses (SNOs) Predictions

Prediction of SNOs between GOES-17 and NOAA-20 Satellite Orbit:

Table of predicted SNOs for the next 14.0 days since TLE Epoch: 9/16/2023
Index Date Time (GOES-17) GOES-17 Lat,Lon NOAA-20 Lat,Lon Distance(km) Time Diff (sec)
1 09/17/2023 08:27:24 0.01,-104.71 0.11,-105.16 51.32 80
2 09/18/2023 08:05:58 0.01,-104.71 -0.90,-100.63 465.12 80
3 09/19/2023 20:27:54 -0.01,-104.68 -0.26,-105.93 141.84 80
4 09/20/2023 20:11:48 -0.01,-104.68 0.75,-101.40 374.67 80
5 09/22/2023 08:33:35 0.01,-104.70 0.43,-106.66 223.28 80
6 09/23/2023 08:12:09 0.01,-104.69 -0.59,-102.13 292.75 80
7 09/24/2023 20:34:03 -0.01,-104.66 -0.62,-107.42 315.23 80
8 09/25/2023 20:17:58 -0.02,-104.65 0.40,-102.89 201.09 80
9 09/27/2023 08:39:44 0.02,-104.68 0.78,-108.16 396.28 80
10 09/28/2023 08:18:18 0.02,-104.67 -0.19,-103.61 120.04 80
11 09/29/2023 20:40:13 -0.02,-104.64 -0.96,-108.92 487.75 80
